Voltar ao catálogo

COSMOS 1275 DEB

AtivoPO
NORAD 14364·DEBRIS·🇷🇺 Russia

Lançado Jun 4, 1981 de Plesetsk Cosmodrome

Loading…

Próximas Passagens (próximas 24 horas)

TLE

AtualizadoSource: Space-Track

Época: Sep 14, 2026, 06:57 UTC

1 14364U 81053HX  26257.28979411  .00002245  00000-0  93484-3 0  9992
2 14364  82.7787 201.0936 0027358 326.6543  33.2917 14.25774848240308

Acompanhe COSMOS 1275 DEB em tempo real com AllMySat

Download on the App Store